Total_Precipitation_Accumulation
0.03 0.03 0.07 0.10 0.11 0.14 0.19 0.23 0.31 0.36 0.29 0.32 0.50 0.67 0.76 0.86 1.09 1.24 1.25 1.18 1.23 1.55 2.01 2.18 2.49 2.98 3.79 4.59 5.31 5.48 5.86 5.46 4.84 4.29 3.87 3.76 3.60 3.29 3.17 3.05 3.00 2.90 2.65 2.57
0.05 0.09 0.11 0.07 0.08 0.11 0.15 0.21 0.31 0.32 0.24 0.29 0.52 0.81 0.95 1.00 0.99 1.06 1.10 1.14 1.23 1.61 2.09 2.42 2.94 3.35 3.38 3.94 4.68 4.77 4.51 4.36 3.95 3.61 3.46 3.30 3.27 2.93 2.76 2.65 2.78 2.59 2.43 2.54
0.08 0.10 0.09 0.07 0.10 0.15 0.17 0.21 0.26 0.25 0.25 0.35 0.58 1.05 1.33 1.18 0.89 0.79 0.84 0.93 1.06 1.40 1.92 2.33 2.75 3.20 3.19 3.59 3.69 3.35 3.23 3.34 3.31 3.16 3.10 3.00 3.02 2.82 2.60 2.48 2.56 2.39 2.21 2.28
0.06 0.07 0.06 0.07 0.09 0.11 0.13 0.13 0.13 0.14 0.24 0.48 0.63 1.32 1.68 1.39 1.03 0.83 0.85 1.01 1.07 1.17 1.37 1.65 1.98 2.41 2.62 2.74 2.66 2.64 2.64 2.72 2.93 2.93 2.73 2.58 2.37 2.32 2.31 2.25 2.34 2.38 2.14 2.05
0.06 0.06 0.06 0.07 0.07 0.08 0.10 0.09 0.10 0.17 0.25 0.51 0.71 1.11 1.59 1.50 1.36 1.15 1.00 1.03 0.98 0.99 1.06 1.20 1.29 1.51 1.79 2.06 2.15 2.15 2.47 2.60 2.62 2.60 2.58 2.66 2.42 2.31 2.31 2.46 2.70 2.63 2.29 1.95
0.06 0.07 0.06 0.06 0.07 0.08 0.09 0.10 0.19 0.36 0.52 0.93 0.90 1.01 1.47 1.32 1.17 1.15 0.98 0.83 0.78 0.80 0.84 1.02 1.06 1.09 1.23 1.38 1.54 1.69 2.02 2.26 2.32 2.27 2.28 2.36 2.43 2.47 2.32 2.32 2.42 2.37 2.23 2.02
0.15 0.14 0.11 0.07 0.08 0.09 0.09 0.15 0.46 0.90 1.21 1.39 0.94 0.91 1.15 0.96 0.96 1.06 0.84 0.58 0.54 0.63 0.67 0.85 0.85 0.88 1.00 1.04 1.16 1.40 1.65 1.83 1.93 1.99 2.07 2.15 2.37 2.36 2.18 2.02 2.12 2.16 2.05 1.95
0.18 0.20 0.12 0.06 0.08 0.09 0.10 0.12 0.31 0.57 0.76 0.95 0.97 1.30 1.23 0.81 0.77 0.69 0.51 0.40 0.38 0.54 0.61 0.66 0.61 0.64 0.78 0.86 0.98 1.17 1.34 1.45 1.58 1.78 1.98 1.98 2.13 2.00 1.91 2.09 1.99 1.89 1.71 1.79
0.09 0.09 0.07 0.06 0.07 0.08 0.08 0.08 0.12 0.22 0.32 0.64 1.06 1.41 1.20 0.77 0.71 0.57 0.42 0.35 0.40 0.44 0.58 0.58 0.53 0.54 0.58 0.65 0.77 1.02 1.34 1.37 1.38 1.48 1.70 1.79 1.79 1.81 1.94 2.17 2.10 1.92 1.86 1.77
0.05 0.04 0.05 0.06 0.07 0.08 0.08 0.09 0.11 0.19 0.33 0.58 0.96 1.33 1.44 1.18 0.85 0.59 0.51 0.48 0.56 0.57 0.66 0.70 0.59 0.60 0.61 0.61 0.74 0.88 1.08 1.30 1.45 1.41 1.40 1.41 1.67 1.74 1.88 1.99 1.91 1.89 1.90 1.94
0.05 0.03 0.04 0.06 0.08 0.09 0.10 0.10 0.11 0.15 0.24 0.41 0.80 1.05 0.95 0.94 0.74 0.60 0.61 0.71 0.59 0.56 0.63 0.71 0.56 0.56 0.59 0.67 0.75 0.88 1.02 1.28 1.43 1.31 1.31 1.42 1.59 1.71 1.78 1.95 1.94 1.90 1.93 2.03
0.05 0.04 0.05 0.09 0.13 0.11 0.11 0.12 0.13 0.17 0.20 0.23 0.43 0.72 0.59 0.66 0.66 0.74 0.78 0.73 0.66 0.66 0.69 0.75 0.70 0.79 0.82 0.92 0.94 0.98 1.06 1.23 1.33 1.32 1.36 1.43 1.54 1.63 1.72 1.82 1.93 1.98 1.97 2.07
0.06 0.05 0.07 0.22 0.33 0.24 0.16 0.12 0.13 0.15 0.15 0.20 0.48 0.75 0.61 0.66 0.68 0.75 0.77 0.74 0.81 0.88 0.85 0.84 0.92 1.04 1.00 1.01 1.13 1.15 1.20 1.26 1.37 1.49 1.50 1.45 1.50 1.50 1.58 1.71 1.81 1.94 2.02 2.10
0.08 0.07 0.09 0.23 0.35 0.38 0.28 0.19 0.17 0.15 0.16 0.21 0.35 0.61 0.58 0.67 0.95 0.92 0.95 0.90 0.84 0.88 0.92 0.86 0.92 1.00 1.04 1.10 1.24 1.33 1.31 1.27 1.33 1.38 1.44 1.50 1.52 1.58 1.69 1.79 1.87 1.97 1.99 2.04
0.09 0.07 0.06 0.11 0.19 0.22 0.23 0.22 0.20 0.15 0.13 0.20 0.30 0.46 0.62 0.74 0.99 0.88 0.88 0.97 1.05 0.95 0.92 0.88 0.91 0.99 1.17 1.22 1.18 1.21 1.26 1.28 1.40 1.42 1.40 1.49 1.60 1.63 1.68 1.70 1.75 1.84 1.88 1.83
0.15 0.12 0.11 0.12 0.15 0.15 0.18 0.20 0.17 0.12 0.11 0.12 0.24 0.47 0.66 0.76 0.89 0.89 0.79 0.87 1.07 1.02 0.93 0.95 1.04 1.15 1.17 1.11 1.10 1.08 1.03 1.12 1.31 1.41 1.51 1.61 1.62 1.54 1.62 1.67 1.72 1.75 1.82 1.91
0.29 0.24 0.23 0.22 0.17 0.19 0.27 0.23 0.19 0.17 0.15 0.16 0.29 0.47 0.65 0.81 0.77 0.84 0.84 0.87 0.85 0.86 0.87 0.97 1.07 1.10 1.12 1.18 1.18 1.06 0.93 1.04 1.36 1.45 1.48 1.68 1.79 1.70 1.78 1.81 1.83 1.81 1.85 2.02
0.39 0.41 0.34 0.30 0.33 0.39 0.32 0.27 0.26 0.28 0.29 0.27 0.31 0.44 0.67 0.87 0.83 0.81 0.83 0.84 0.79 0.67 0.75 0.85 0.92 0.96 1.00 1.06 1.09 1.06 1.04 1.08 1.34 1.56 1.66 1.94 2.11 1.97 1.96 1.98 2.00 2.05 2.16 2.23
0.40 0.49 0.50 0.46 0.47 0.49 0.43 0.39 0.41 0.51 0.63 0.53 0.53 0.67 0.74 0.74 0.79 0.86 0.81 0.75 0.69 0.69 0.74 0.78 0.90 0.98 1.10 1.24 1.24 1.22 1.31 1.41 1.59 1.77 1.92 2.18 2.41 2.51 2.45 2.29 2.36 2.45 2.45 2.42
0.37 0.49 0.59 0.61 0.68 0.77 0.72 0.58 0.53 0.69 1.13 0.93 0.76 0.79 0.81 0.82 1.06 1.06 0.79 0.69 0.64 0.68 0.79 0.93 1.10 1.14 1.19 1.39 1.41 1.43 1.56 1.79 1.96 1.95 1.98 2.19 2.44 2.55 2.52 2.49 2.66 2.76 2.66 2.56
0.59 0.61 0.63 0.69 0.80 0.81 0.73 0.66 0.72 1.25 1.66 1.22 1.05 1.05 1.11 1.12 1.08 0.94 0.85 0.85 0.76 0.73 0.85 0.89 0.92 1.06 1.19 1.33 1.47 1.66 1.73 1.87 1.98 2.04 2.05 2.16 2.40 2.68 2.63 2.67 2.74 2.82 2.81 2.82
0.83 0.83 0.81 0.85 1.09 1.23 0.81 0.73 1.13 1.54 1.39 1.44 1.44 1.38 1.31 1.16 0.99 0.89 0.88 0.95 0.84 0.82 0.89 0.93 0.89 0.98 1.16 1.38 1.62 1.74 1.76 1.85 2.03 2.07 2.07 2.12 2.39 2.52 2.57 2.73 2.79 2.89 3.00 2.96
1.01 1.08 1.07 1.16 1.39 1.30 1.03 1.11 1.21 1.30 1.41 1.44 1.38 1.39 1.33 1.26 1.13 1.03 1.03 1.02 1.00 1.03 1.00 1.08 1.10 1.10 1.21 1.39 1.62 1.84 1.89 1.89 1.86 1.84 1.85 1.98 2.17 2.28 2.43 2.55 2.49 2.56 2.71 2.67
1.16 1.01 1.25 1.59 1.57 1.41 1.27 1.21 1.23 1.20 1.26 1.21 1.14 1.11 1.09 1.11 1.09 1.07 1.09 1.17 1.20 1.25 1.20 1.21 1.31 1.31 1.33 1.41 1.59 1.77 1.81 1.83 1.82 1.77 1.75 1.88 2.13 2.25 2.33 2.40 2.37 2.43 2.47 2.53
1.48 1.40 1.62 2.03 1.99 1.79 1.62 1.42 1.37 1.24 1.25 1.22 1.11 1.08 1.03 0.96 0.99 1.01 0.99 1.08 1.15 1.21 1.24 1.24 1.32 1.39 1.38 1.42 1.60 1.74 1.80 1.87 1.93 1.91 1.90 2.03 2.12 2.20 2.37 2.44 2.46 2.47 2.44 2.42
1.49 1.75 2.06 2.31 2.12 2.01 1.93 1.54 1.45 1.48 1.35 1.24 1.23 1.19 1.10 0.98 0.96 1.00 1.01 1.08 1.14 1.20 1.33 1.38 1.44 1.45 1.42 1.43 1.55 1.69 1.88 2.05 2.11 2.04 2.03 2.03 2.02 2.08 2.11 2.15 2.11 2.08 2.01 2.01